Time,TemperatureF,DewpointF,PressureIn,WindDirection,WindDirectionDegrees,WindSpeedMPH,WindSpeedGustMPH,Humidity,HourlyPrecipIn,Conditions,Clouds,dailyrainin,SoftwareType,DateUTC
2013-12-13 00:01:00,20.1,-6.3,29.12,ESE,112,0.0,0.0,30,0.00,,---,0.00,VWS V13.01,2013-12-13 05:01:00,
2013-12-13 00:11:00,19.8,-4.7,29.12,ESE,112,0.0,0.0,33,0.00,,---,0.00,VWS V13.01,2013-12-13 05:11:00,
2013-12-13 00:12:00,19.8,-4.7,29.12,ESE,112,0.0,0.0,33,0.00,,---,0.00,VWS V13.01,2013-12-13 05:12:00,
2013-12-13 00:13:00,19.8,-4.7,29.12,North,0,0.0,0.0,33,0.00,,---,0.00,VWS V13.01,2013-12-13 05:13:00,
2013-12-13 00:14:00,19.6,-4.8,29.12,West,270,0.0,0.0,33,0.00,,---,0.00,VWS V13.01,2013-12-13 05:14:00,
2013-12-13 00:19:00,19.4,-4.4,29.12,West,270,0.0,0.0,34,0.00,,---,0.00,VWS V13.01,2013-12-13 05:19:00,
2013-12-13 00:20:00,19.2,-4.5,29.12,West,270,0.0,0.0,34,0.00,,---,0.00,VWS V13.01,2013-12-13 05:20:00,
2013-12-13 00:25:00,19.2,-4.5,29.12,West,270,0.0,0.0,34,0.00,,---,0.00,VWS V13.01,2013-12-13 05:25:00,
2013-12-13 00:30:00,19.4,-4.4,29.12,WSW,248,0.0,0.0,34,0.00,,---,0.00,VWS V13.01,2013-12-13 05:30:00,
2013-12-13 00:35:00,20.5,-4.7,29.12,South,180,0.0,0.0,32,0.00,,---,0.00,VWS V13.01,2013-12-13 05:35:00,
2013-12-13 00:41:00,19.9,-4.5,29.12,ESE,112,0.0,0.0,33,0.00,,---,0.00,VWS V13.01,2013-12-13 05:41:00,
2013-12-13 00:46:00,21.0,-5.5,29.12,ESE,112,0.0,0.0,30,0.00,,---,0.00,VWS V13.01,2013-12-13 05:46:00,
2013-12-13 00:51:00,20.3,-4.2,29.09,NNW,338,0.0,0.0,33,0.00,,---,0.00,VWS V13.01,2013-12-13 05:51:00,
2013-12-13 00:56:00,20.8,-4.4,29.09,East,90,0.0,0.0,32,0.00,,---,0.00,VWS V13.01,2013-12-13 05:56:00,
2013-12-13 01:01:00,21.0,-5.5,29.09,East,90,0.0,0.0,30,0.00,,---,0.00,VWS V13.01,2013-12-13 06:01:00,
2013-12-13 01:06:00,20.8,-5.7,29.09,East,90,0.0,0.0,30,0.00,,---,0.00,VWS V13.01,2013-12-13 06:06:00,
2013-12-13 01:11:00,20.5,-4.7,29.09,South,180,0.0,0.0,32,0.00,,---,0.00,VWS V13.01,2013-12-13 06:11:00,
2013-12-13 01:16:00,21.2,-5.4,29.09,SE,135,0.0,0.0,30,0.00,,---,0.00,VWS V13.01,2013-12-13 06:16:00,
2013-12-13 01:21:00,22.6,-6.3,29.09,SE,135,0.0,0.0,27,0.00,,---,0.00,VWS V13.01,2013-12-13 06:21:00,
2013-12-13 01:26:00,21.9,-6.9,29.09,SE,135,0.0,0.0,27,0.00,,---,0.00,VWS V13.01,2013-12-13 06:26:00,
2013-12-13 01:31:00,21.2,-7.6,29.09,East,90,0.0,0.0,27,0.00,,---,0.00,VWS V13.01,2013-12-13 06:31:00,
2013-12-13 01:36:00,22.1,-6.8,29.09,East,90,0.0,0.0,27,0.00,,---,0.00,VWS V13.01,2013-12-13 06:36:00,
2013-12-13 01:41:00,22.6,-6.3,29.09,NW,315,0.0,0.0,27,0.00,,---,0.00,VWS V13.01,2013-12-13 06:41:00,
2013-12-13 01:46:00,21.4,-7.4,29.09,NW,315,0.0,0.0,27,0.00,,---,0.00,VWS V13.01,2013-12-13 06:46:00,
2013-12-13 01:51:00,22.1,-6.8,29.09,NE,45,0.0,2.7,27,0.00,,---,0.00,VWS V13.01,2013-12-13 06:51:00,
2013-12-13 01:56:00,22.6,-6.3,29.09,West,270,0.0,2.7,27,0.00,,---,0.00,VWS V13.01,2013-12-13 06:56:00,
2013-12-13 02:01:00,23.0,-7.6,29.09,NE,45,0.0,0.0,25,0.00,,---,0.00,VWS V13.01,2013-12-13 07:01:00,
2013-12-13 02:07:00,22.3,-6.6,29.09,NE,45,0.0,0.0,27,0.00,,---,0.00,VWS V13.01,2013-12-13 07:07:00,
2013-12-13 02:12:00,22.8,-7.7,29.09,SE,135,5.8,5.8,25,0.00,,---,0.00,VWS V13.01,2013-12-13 07:12:00,
2013-12-13 02:17:00,23.9,-7.6,29.09,SE,135,0.0,5.8,24,0.00,,---,0.00,VWS V13.01,2013-12-13 07:17:00,
2013-12-13 02:22:00,24.3,-7.3,29.09,ENE,68,0.0,0.0,24,0.00,,---,0.00,VWS V13.01,2013-12-13 07:22:00,
2013-12-13 02:27:00,22.6,-7.9,29.09,NE,45,0.0,0.0,25,0.00,,---,0.00,VWS V13.01,2013-12-13 07:27:00,
2013-12-13 02:32:00,22.1,-6.8,29.09,East,90,0.0,0.0,27,0.00,,---,0.00,VWS V13.01,2013-12-13 07:32:00,
2013-12-13 02:37:00,22.8,-7.7,29.09,East,90,0.0,0.0,25,0.00,,---,0.00,VWS V13.01,2013-12-13 07:37:00,
2013-12-13 02:42:00,21.6,-7.2,29.09,NW,315,0.0,0.0,27,0.00,,---,0.00,VWS V13.01,2013-12-13 07:42:00,
2013-12-13 02:47:00,20.8,-5.7,29.09,NNE,22,0.0,0.0,30,0.00,,---,0.00,VWS V13.01,2013-12-13 07:47:00,
2013-12-13 02:52:00,20.3,-4.8,29.09,South,180,0.0,0.0,32,0.00,,---,0.00,VWS V13.01,2013-12-13 07:52:00,
2013-12-13 02:57:00,20.7,-5.9,29.09,West,270,0.0,0.0,30,0.00,,---,0.00,VWS V13.01,2013-12-13 07:57:00,
2013-12-13 03:02:00,21.0,-5.5,29.09,West,270,0.0,0.0,30,0.00,,---,0.00,VWS V13.01,2013-12-13 08:02:00,
2013-12-13 03:07:00,21.6,-7.2,29.09,South,180,0.0,0.0,27,0.00,,---,0.00,VWS V13.01,2013-12-13 08:07:00,
2013-12-13 03:12:00,20.5,-4.7,29.09,WNW,292,0.0,0.0,32,0.00,,---,0.00,VWS V13.01,2013-12-13 08:12:00,
2013-12-13 03:17:00,21.2,-5.4,29.09,NW,315,0.0,0.0,30,0.00,,---,0.00,VWS V13.01,2013-12-13 08:17:00,
2013-12-13 03:22:00,21.2,-5.4,29.09,WNW,292,0.0,0.0,30,0.00,,---,0.00,VWS V13.01,2013-12-13 08:22:00,
2013-12-13 03:27:00,21.6,-7.2,29.09,NW,315,0.0,0.0,27,0.00,,---,0.00,VWS V13.01,2013-12-13 08:27:00,
2013-12-13 03:33:00,21.7,-7.1,29.12,SSE,158,0.0,0.0,27,0.00,,---,0.00,VWS V13.01,2013-12-13 08:33:00,
2013-12-13 03:38:00,22.5,-6.5,29.12,North,0,0.0,0.0,27,0.00,,---,0.00,VWS V13.01,2013-12-13 08:38:00,
2013-12-13 03:43:00,21.6,-7.2,29.12,North,0,0.0,0.0,27,0.00,,---,0.00,VWS V13.01,2013-12-13 08:43:00,
2013-12-13 03:48:00,21.2,-5.4,29.09,NW,315,0.0,0.0,30,0.00,,---,0.00,VWS V13.01,2013-12-13 08:48:00,
2013-12-13 03:53:00,21.6,-7.2,29.09,SSE,158,0.0,0.0,27,0.00,,---,0.00,VWS V13.01,2013-12-13 08:53:00,
2013-12-13 03:58:00,21.6,-7.2,29.09,South,180,0.0,0.0,27,0.00,,---,0.00,VWS V13.01,2013-12-13 08:58:00,
2013-12-13 04:03:00,21.6,-7.2,29.09,South,180,0.0,0.0,27,0.00,,---,0.00,VWS V13.01,2013-12-13 09:03:00,
2013-12-13 04:08:00,21.4,-7.4,29.09,South,180,0.0,0.0,27,0.00,,---,0.00,VWS V13.01,2013-12-13 09:08:00,
2013-12-13 04:13:00,20.8,-5.7,29.09,South,180,0.0,0.0,30,0.00,,---,0.00,VWS V13.01,2013-12-13 09:13:00,
2013-12-13 04:18:00,21.6,-7.2,29.09,South,180,0.0,0.0,27,0.00,,---,0.00,VWS V13.01,2013-12-13 09:18:00,
2013-12-13 04:23:00,21.7,-7.1,29.09,South,180,0.0,0.0,27,0.00,,---,0.00,VWS V13.01,2013-12-13 09:23:00,
2013-12-13 04:28:00,21.7,-7.1,29.09,SE,135,0.0,0.0,27,0.00,,---,0.00,VWS V13.01,2013-12-13 09:28:00,
2013-12-13 04:33:00,24.1,-7.5,29.09,SE,135,0.0,0.0,24,0.00,,---,0.00,VWS V13.01,2013-12-13 09:33:00,
2013-12-13 04:38:00,23.2,-8.2,29.09,West,270,0.0,0.0,24,0.00,,---,0.00,VWS V13.01,2013-12-13 09:38:00,
2013-12-13 04:43:00,22.8,-7.7,29.09,SE,135,0.0,0.0,25,0.00,,---,0.00,VWS V13.01,2013-12-13 09:43:00,
2013-12-13 04:48:00,23.7,-7.8,29.09,SE,135,0.0,0.0,24,0.00,,---,0.00,VWS V13.01,2013-12-13 09:48:00,
2013-12-13 04:53:00,24.1,-7.5,29.09,SE,135,0.0,0.0,24,0.00,,---,0.00,VWS V13.01,2013-12-13 09:53:00,
2013-12-13 04:59:00,23.7,-7.8,29.09,South,180,0.0,0.0,24,0.00,,---,0.00,VWS V13.01,2013-12-13 09:59:00,
2013-12-13 05:04:00,23.7,-7.8,29.09,SE,135,0.0,0.0,24,0.00,,---,0.00,VWS V13.01,2013-12-13 10:04:00,
2013-12-13 05:09:00,23.0,-7.6,29.09,South,180,0.0,0.0,25,0.00,,---,0.00,VWS V13.01,2013-12-13 10:09:00,
2013-12-13 05:14:00,21.9,-8.5,29.09,West,270,0.0,0.0,25,0.00,,---,0.00,VWS V13.01,2013-12-13 10:14:00,
2013-12-13 05:19:00,22.1,-8.3,29.12,South,180,0.0,0.0,25,0.00,,---,0.00,VWS V13.01,2013-12-13 10:19:00,
2013-12-13 05:24:00,22.5,-8.0,29.12,South,180,0.0,0.0,25,0.00,,---,0.00,VWS V13.01,2013-12-13 10:24:00,
2013-12-13 05:29:00,22.6,-7.9,29.12,West,270,0.0,0.0,25,0.00,,---,0.00,VWS V13.01,2013-12-13 10:29:00,
2013-12-13 05:34:00,22.8,-7.7,29.12,South,180,0.0,0.0,25,0.00,,---,0.00,VWS V13.01,2013-12-13 10:34:00,
2013-12-13 05:39:00,22.8,-7.7,29.12,South,180,0.0,0.0,25,0.00,,---,0.00,VWS V13.01,2013-12-13 10:39:00,
2013-12-13 05:44:00,23.9,-7.6,29.12,NW,315,0.0,0.0,24,0.00,,---,0.00,VWS V13.01,2013-12-13 10:44:00,
2013-12-13 05:49:00,23.9,-7.6,29.09,South,180,0.0,0.0,24,0.00,,---,0.00,VWS V13.01,2013-12-13 10:49:00,
2013-12-13 05:54:00,23.9,-7.6,29.09,SSW,202,0.0,0.0,24,0.00,,---,0.00,VWS V13.01,2013-12-13 10:54:00,
2013-12-13 05:59:00,24.3,-7.3,29.09,South,180,0.0,0.0,24,0.00,,---,0.00,VWS V13.01,2013-12-13 10:59:00,
2013-12-13 06:04:00,24.4,-7.2,29.12,SSW,202,0.0,0.0,24,0.00,,---,0.00,VWS V13.01,2013-12-13 11:04:00,
2013-12-13 06:09:00,24.4,-7.2,29.12,South,180,0.0,0.0,24,0.00,,---,0.00,VWS V13.01,2013-12-13 11:09:00,
2013-12-13 06:14:00,24.6,-7.0,29.12,South,180,0.0,0.0,24,0.00,,---,0.00,VWS V13.01,2013-12-13 11:14:00,
2013-12-13 06:19:00,24.4,-7.2,29.12,South,180,0.0,0.0,24,0.00,,---,0.00,VWS V13.01,2013-12-13 11:19:00,
2013-12-13 06:25:00,24.4,-7.2,29.12,South,180,0.0,0.0,24,0.00,,---,0.00,VWS V13.01,2013-12-13 11:25:00,
2013-12-13 06:30:00,24.3,-7.3,29.12,South,180,0.0,0.0,24,0.00,,---,0.00,VWS V13.01,2013-12-13 11:30:00,
2013-12-13 06:35:00,24.3,-7.3,29.12,West,270,0.0,0.0,24,0.00,,---,0.00,VWS V13.01,2013-12-13 11:35:00,
2013-12-13 06:40:00,24.1,-7.5,29.12,SE,135,0.0,4.0,24,0.00,,---,0.00,VWS V13.01,2013-12-13 11:40:00,
2013-12-13 06:45:00,24.3,-7.3,29.12,South,180,0.0,0.0,24,0.00,,---,0.00,VWS V13.01,2013-12-13 11:45:00,
2013-12-13 06:50:00,24.4,-7.2,29.12,West,270,0.0,2.7,24,0.00,,---,0.00,VWS V13.01,2013-12-13 11:50:00,
2013-12-13 06:55:00,24.6,-7.0,29.12,SSW,202,0.0,3.6,24,0.00,,---,0.00,VWS V13.01,2013-12-13 11:55:00,
2013-12-13 07:00:00,24.8,-6.9,29.12,SW,225,0.0,3.6,24,0.00,,---,0.00,VWS V13.01,2013-12-13 12:00:00,
2013-12-13 07:05:00,24.8,-6.9,29.14,West,270,0.0,3.1,24,0.00,,---,0.00,VWS V13.01,2013-12-13 12:05:00,
2013-12-13 07:10:00,24.8,-6.9,29.14,South,180,0.0,3.1,24,0.00,,---,0.00,VWS V13.01,2013-12-13 12:10:00,
2013-12-13 07:15:00,24.8,-6.9,29.14,SE,135,2.2,3.1,24,0.00,,---,0.00,VWS V13.01,2013-12-13 12:15:00,
2013-12-13 07:20:00,24.6,-7.0,29.12,South,180,0.0,3.1,24,0.00,,---,0.00,VWS V13.01,2013-12-13 12:20:00,
2013-12-13 07:25:00,24.6,-7.0,29.12,SSE,158,0.0,2.2,24,0.00,,---,0.00,VWS V13.01,2013-12-13 12:25:00,
2013-12-13 07:26:00,24.8,-6.9,29.12,SSE,158,0.0,2.2,24,0.00,,---,0.00,VWS V13.01,2013-12-13 12:26:00,
2013-12-13 07:31:00,24.8,-6.9,29.12,South,180,0.0,2.2,24,0.00,,---,0.00,VWS V13.01,2013-12-13 12:31:00,
2013-12-13 07:36:00,24.8,-6.9,29.12,South,180,0.0,3.1,24,0.00,,---,0.00,VWS V13.01,2013-12-13 12:36:00,
2013-12-13 07:41:00,24.8,-6.9,29.12,WSW,248,2.2,2.2,24,0.00,,---,0.00,VWS V13.01,2013-12-13 12:41:00,
2013-12-13 07:46:00,24.8,-6.9,29.12,South,180,0.0,3.6,24,0.00,,---,0.00,VWS V13.01,2013-12-13 12:46:00,
2013-12-13 07:52:00,24.8,-6.9,29.12,South,180,0.0,3.6,24,0.00,,---,0.00,VWS V13.01,2013-12-13 12:52:00,
2013-12-13 07:57:00,25.0,-6.7,29.12,SSE,158,0.0,3.6,24,0.00,,---,0.00,VWS V13.01,2013-12-13 12:57:00,
2013-12-13 08:02:00,25.0,-6.7,29.12,SSE,158,0.0,0.0,24,0.00,,---,0.00,VWS V13.01,2013-12-13 13:02:00,
2013-12-13 08:07:00,25.2,-6.6,29.12,South,180,0.0,3.1,24,0.00,,---,0.00,VWS V13.01,2013-12-13 13:07:00,
2013-12-13 08:12:00,25.2,-6.6,29.12,SE,135,0.0,3.1,24,0.00,,---,0.00,VWS V13.01,2013-12-13 13:12:00,
2013-12-13 08:17:00,25.5,-6.2,29.12,South,180,0.0,3.1,24,0.00,,---,0.00,VWS V13.01,2013-12-13 13:17:00,
2013-12-13 08:22:00,25.9,-5.9,29.12,SW,225,0.0,0.0,24,0.00,,---,0.00,VWS V13.01,2013-12-13 13:22:00,
2013-12-13 08:27:00,26.1,-5.8,29.12,West,270,0.0,0.0,24,0.00,,---,0.00,VWS V13.01,2013-12-13 13:27:00,
2013-12-13 08:32:00,26.4,-5.5,29.12,South,180,2.7,2.7,24,0.00,,---,0.00,VWS V13.01,2013-12-13 13:32:00,
2013-12-13 08:37:00,26.4,-5.5,29.12,SW,225,0.0,2.7,24,0.00,,---,0.00,VWS V13.01,2013-12-13 13:37:00,
2013-12-13 08:42:00,26.6,-5.3,29.12,SE,135,0.0,0.0,24,0.00,,---,0.00,VWS V13.01,2013-12-13 13:42:00,
2013-12-13 08:47:00,26.6,-5.3,29.14,South,180,0.0,0.0,24,0.00,,---,0.00,VWS V13.01,2013-12-13 13:47:00,
2013-12-13 08:52:00,27.0,-5.9,29.14,SSE,158,0.0,4.0,23,0.00,,---,0.00,VWS V13.01,2013-12-13 13:52:00,
2013-12-13 08:57:00,27.3,-5.6,29.14,South,180,0.0,4.5,23,0.00,,---,0.00,VWS V13.01,2013-12-13 13:57:00,
2013-12-13 09:02:00,27.3,-5.6,29.14,SE,135,0.0,0.0,23,0.00,,---,0.00,VWS V13.01,2013-12-13 14:02:00,
2013-12-13 09:07:00,27.7,-5.3,29.14,South,180,0.0,3.1,23,0.00,,---,0.00,VWS V13.01,2013-12-13 14:07:00,
2013-12-13 09:13:00,27.9,-5.1,29.14,SE,135,0.0,3.1,23,0.00,,---,0.00,VWS V13.01,2013-12-13 14:13:00,
2013-12-13 09:18:00,28.2,-4.8,29.14,NNW,338,0.0,3.1,23,0.00,,---,0.00,VWS V13.01,2013-12-13 14:18:00,
2013-12-13 09:23:00,28.4,-4.7,29.14,WNW,292,0.0,0.0,23,0.00,,---,0.00,VWS V13.01,2013-12-13 14:23:00,
2013-12-13 09:28:00,28.8,-4.3,29.14,South,180,0.0,0.0,23,0.00,,---,0.00,VWS V13.01,2013-12-13 14:28:00,
2013-12-13 09:33:00,28.9,-4.2,29.14,SSE,158,0.0,8.1,23,0.00,,---,0.00,VWS V13.01,2013-12-13 14:33:00,
2013-12-13 09:38:00,29.1,-4.1,29.14,West,270,0.0,8.1,23,0.00,,---,0.00,VWS V13.01,2013-12-13 14:38:00,
2013-12-13 09:43:00,29.5,-3.7,29.14,South,180,0.0,0.0,23,0.00,,---,0.00,VWS V13.01,2013-12-13 14:43:00,
2013-12-13 09:48:00,29.8,-3.4,29.14,SSE,158,4.9,4.9,23,0.00,,---,0.00,VWS V13.01,2013-12-13 14:48:00,
2013-12-13 09:53:00,30.2,-3.1,29.14,South,180,0.0,5.4,23,0.00,,---,0.00,VWS V13.01,2013-12-13 14:53:00,
2013-12-13 09:58:00,30.0,-3.3,29.14,SSE,158,0.0,5.4,23,0.00,,---,0.00,VWS V13.01,2013-12-13 14:58:00,
2013-12-13 10:03:00,30.4,-3.0,29.14,SW,225,0.0,0.0,23,0.00,,---,0.00,VWS V13.01,2013-12-13 15:03:00,
2013-12-13 10:08:00,30.4,-3.0,29.14,South,180,0.0,2.7,23,0.00,,---,0.00,VWS V13.01,2013-12-13 15:08:00,
2013-12-13 10:13:00,30.2,-3.1,29.14,South,180,0.0,2.7,23,0.00,,---,0.00,VWS V13.01,2013-12-13 15:13:00,
2013-12-13 10:18:00,30.9,-2.5,29.14,South,180,2.2,8.3,23,0.00,,---,0.00,VWS V13.01,2013-12-13 15:18:00,
2013-12-13 10:23:00,31.3,-2.2,29.14,West,270,0.0,0.0,23,0.00,,---,0.00,VWS V13.01,2013-12-13 15:23:00,
2013-12-13 10:28:00,31.5,-2.0,29.14,SE,135,0.0,10.1,23,0.00,,---,0.00,VWS V13.01,2013-12-13 15:28:00,
2013-12-13 10:34:00,31.6,-1.9,29.14,SE,135,0.0,10.1,23,0.00,,---,0.00,VWS V13.01,2013-12-13 15:34:00,
2013-12-13 10:39:00,32.2,-1.4,29.14,South,180,0.0,10.1,23,0.00,,---,0.00,VWS V13.01,2013-12-13 15:39:00,
2013-12-13 10:44:00,32.5,-1.1,29.14,SSE,158,0.0,3.6,23,0.00,,---,0.00,VWS V13.01,2013-12-13 15:44:00,
2013-12-13 10:49:00,32.2,-1.4,29.17,SW,225,0.0,3.6,23,0.00,,---,0.00,VWS V13.01,2013-12-13 15:49:00,
2013-12-13 10:54:00,32.7,-1.0,29.17,West,270,0.0,3.6,23,0.00,,---,0.00,VWS V13.01,2013-12-13 15:54:00,
2013-12-13 10:59:00,32.9,-0.8,29.17,West,270,0.0,3.6,23,0.00,,---,0.00,VWS V13.01,2013-12-13 15:59:00,
2013-12-13 11:04:00,33.1,-0.7,29.14,WNW,292,0.0,0.0,23,0.00,,---,0.00,VWS V13.01,2013-12-13 16:04:00,
2013-12-13 11:09:00,34.2,-0.7,29.14,ESE,112,0.0,0.0,22,0.00,,---,0.00,VWS V13.01,2013-12-13 16:09:00,
2013-12-13 11:14:00,34.9,-0.1,29.14,SW,225,0.0,0.0,22,0.00,,---,0.00,VWS V13.01,2013-12-13 16:14:00,
2013-12-13 11:19:00,34.7,-0.2,29.14,NW,315,0.0,4.5,22,0.00,,---,0.00,VWS V13.01,2013-12-13 16:19:00,
2013-12-13 11:24:00,34.9,-0.1,29.14,WSW,248,0.0,2.2,22,0.00,,---,0.00,VWS V13.01,2013-12-13 16:24:00,
2013-12-13 11:29:00,34.9,-0.1,29.14,WNW,292,0.0,2.2,22,0.00,,---,0.00,VWS V13.01,2013-12-13 16:29:00,
2013-12-13 11:35:00,34.7,-0.2,29.14,SW,225,0.0,2.2,22,0.00,,---,0.00,VWS V13.01,2013-12-13 16:35:00,
2013-12-13 11:40:00,35.8,0.7,29.14,North,0,0.0,2.2,22,0.00,,---,0.00,VWS V13.01,2013-12-13 16:40:00,
2013-12-13 11:45:00,35.6,0.5,29.14,South,180,0.0,2.2,22,0.00,,---,0.00,VWS V13.01,2013-12-13 16:45:00,
2013-12-13 11:50:00,35.4,0.4,29.14,SSW,202,5.4,5.4,22,0.00,,---,0.00,VWS V13.01,2013-12-13 16:50:00,
2013-12-13 11:55:00,35.6,0.5,29.14,SSE,158,0.0,5.8,22,0.00,,---,0.00,VWS V13.01,2013-12-13 16:55:00,
2013-12-13 12:00:00,36.3,1.1,29.14,SW,225,0.0,5.8,22,0.00,,---,0.00,VWS V13.01,2013-12-13 17:00:00,
2013-12-13 12:05:00,36.7,1.4,29.14,SSE,158,0.0,0.0,22,0.00,,---,0.00,VWS V13.01,2013-12-13 17:05:00,
2013-12-13 12:10:00,37.0,1.7,29.14,South,180,0.0,3.1,22,0.00,,---,0.00,VWS V13.01,2013-12-13 17:10:00,
2013-12-13 12:15:00,37.0,1.7,29.14,South,180,0.0,3.1,22,0.00,,---,0.00,VWS V13.01,2013-12-13 17:15:00,
2013-12-13 12:20:00,37.4,1.0,29.14,SSE,158,0.0,3.1,21,0.00,,---,0.00,VWS V13.01,2013-12-13 17:20:00,
2013-12-13 12:25:00,37.4,1.0,29.14,South,180,0.0,0.0,21,0.00,,---,0.00,VWS V13.01,2013-12-13 17:25:00,
2013-12-13 12:30:00,38.3,1.8,29.14,South,180,0.0,0.0,21,0.00,,---,0.00,VWS V13.01,2013-12-13 17:30:00,
2013-12-13 12:35:00,37.4,1.0,29.14,SSE,158,0.0,0.0,21,0.00,,---,0.00,VWS V13.01,2013-12-13 17:35:00,
2013-12-13 12:40:00,37.8,1.4,29.14,SE,135,0.0,2.7,21,0.00,,---,0.00,VWS V13.01,2013-12-13 17:40:00,
2013-12-13 12:45:00,38.1,1.6,29.14,South,180,0.0,0.0,21,0.00,,---,0.00,VWS V13.01,2013-12-13 17:45:00,
2013-12-13 12:50:00,38.1,1.6,29.12,SE,135,0.0,2.2,21,0.00,,---,0.00,VWS V13.01,2013-12-13 17:50:00,
2013-12-13 12:56:00,38.5,2.0,29.12,North,0,2.2,2.2,21,0.00,,---,0.00,VWS V13.01,2013-12-13 17:56:00,
2013-12-13 13:01:00,38.5,2.0,29.12,South,180,0.0,2.2,21,0.00,,---,0.00,VWS V13.01,2013-12-13 18:01:00,
2013-12-13 13:06:00,39.0,2.4,29.12,SSW,202,0.0,5.4,21,0.00,,---,0.00,VWS V13.01,2013-12-13 18:06:00,
2013-12-13 13:11:00,39.2,2.6,29.12,WSW,248,0.0,5.4,21,0.00,,---,0.00,VWS V13.01,2013-12-13 18:11:00,
2013-12-13 13:16:00,39.4,2.7,29.12,North,0,0.0,5.4,21,0.00,,---,0.00,VWS V13.01,2013-12-13 18:16:00,
2013-12-13 13:21:00,39.2,2.6,29.12,NW,315,0.0,5.4,21,0.00,,---,0.00,VWS V13.01,2013-12-13 18:21:00,
2013-12-13 13:26:00,39.9,3.2,29.12,SE,135,0.0,0.0,21,0.00,,---,0.00,VWS V13.01,2013-12-13 18:26:00,
2013-12-13 13:31:00,39.0,2.4,29.12,NW,315,0.0,0.0,21,0.00,,---,0.00,VWS V13.01,2013-12-13 18:31:00,
2013-12-13 13:36:00,39.7,3.0,29.12,SSE,158,0.0,7.2,21,0.00,,---,0.00,VWS V13.01,2013-12-13 18:36:00,
2013-12-13 13:41:00,39.6,2.9,29.12,South,180,0.0,7.2,21,0.00,,---,0.00,VWS V13.01,2013-12-13 18:41:00,
2013-12-13 13:46:00,40.3,3.5,29.12,SE,135,0.0,0.0,21,0.00,,---,0.00,VWS V13.01,2013-12-13 18:46:00,
2013-12-13 13:51:00,40.3,3.5,29.12,South,180,0.0,4.5,21,0.00,,---,0.00,VWS V13.01,2013-12-13 18:51:00,
2013-12-13 13:56:00,40.3,3.5,29.12,SW,225,0.0,4.5,21,0.00,,---,0.00,VWS V13.01,2013-12-13 18:56:00,
2013-12-13 14:01:00,40.1,3.3,29.12,South,180,0.0,0.0,21,0.00,,---,0.00,VWS V13.01,2013-12-13 19:01:00,
2013-12-13 14:06:00,41.4,4.4,29.12,South,180,0.0,0.0,21,0.00,,---,0.00,VWS V13.01,2013-12-13 19:06:00,
2013-12-13 14:11:00,41.0,4.1,29.12,West,270,2.2,4.0,21,0.00,,---,0.00,VWS V13.01,2013-12-13 19:11:00,
2013-12-13 14:16:00,41.5,4.5,29.12,West,270,0.0,5.8,21,0.00,,---,0.00,VWS V13.01,2013-12-13 19:16:00,
2013-12-13 14:22:00,41.4,4.4,29.12,WNW,292,0.0,0.0,21,0.00,,---,0.00,VWS V13.01,2013-12-13 19:22:00,
2013-12-13 14:27:00,41.2,4.2,29.12,North,0,2.2,2.2,21,0.00,,---,0.00,VWS V13.01,2013-12-13 19:27:00,
2013-12-13 14:32:00,41.4,4.4,29.12,West,270,0.0,3.6,21,0.00,,---,0.00,VWS V13.01,2013-12-13 19:32:00,
2013-12-13 14:37:00,40.6,3.8,29.12,South,180,0.0,3.6,21,0.00,,---,0.00,VWS V13.01,2013-12-13 19:37:00,
2013-12-13 14:42:00,41.5,4.5,29.12,East,90,0.0,0.0,21,0.00,,---,0.00,VWS V13.01,2013-12-13 19:42:00,
2013-12-13 14:47:00,41.5,4.5,29.12,West,270,0.0,2.7,21,0.00,,---,0.00,VWS V13.01,2013-12-13 19:47:00,
2013-12-13 14:52:00,41.5,4.5,29.12,SE,135,0.0,2.7,21,0.00,,---,0.00,VWS V13.01,2013-12-13 19:52:00,
2013-12-13 14:57:00,42.1,5.0,29.12,South,180,0.0,2.7,21,0.00,,---,0.00,VWS V13.01,2013-12-13 19:57:00,
2013-12-13 15:02:00,41.2,4.2,29.09,South,180,0.0,0.0,21,0.00,,---,0.00,VWS V13.01,2013-12-13 20:02:00,
2013-12-13 15:07:00,40.6,3.8,29.09,SW,225,0.0,0.0,21,0.00,,---,0.00,VWS V13.01,2013-12-13 20:07:00,
2013-12-13 15:12:00,40.1,3.3,29.09,South,180,0.0,0.0,21,0.00,,---,0.00,VWS V13.01,2013-12-13 20:12:00,
2013-12-13 15:17:00,39.7,3.0,29.09,East,90,0.0,3.1,21,0.00,,---,0.00,VWS V13.01,2013-12-13 20:17:00,
2013-12-13 15:22:00,39.2,2.6,29.09,South,180,0.0,0.0,21,0.00,,---,0.00,VWS V13.01,2013-12-13 20:22:00,
2013-12-13 15:27:00,39.0,2.4,29.09,South,180,0.0,0.0,21,0.00,,---,0.00,VWS V13.01,2013-12-13 20:27:00,
2013-12-13 15:32:00,38.7,2.1,29.09,South,180,0.0,2.2,21,0.00,,---,0.00,VWS V13.01,2013-12-13 20:32:00,
2013-12-13 15:37:00,38.5,2.0,29.09,SSE,158,0.0,2.2,21,0.00,,---,0.00,VWS V13.01,2013-12-13 20:37:00,
2013-12-13 15:42:00,38.5,2.0,29.09,South,180,0.0,0.0,21,0.00,,---,0.00,VWS V13.01,2013-12-13 20:42:00,
2013-12-13 15:48:00,38.3,1.8,29.12,South,180,0.0,0.0,21,0.00,,---,0.00,VWS V13.01,2013-12-13 20:48:00,
2013-12-13 15:53:00,38.3,1.8,29.12,South,180,0.0,0.0,21,0.00,,---,0.00,VWS V13.01,2013-12-13 20:53:00,
2013-12-13 15:58:00,38.3,1.8,29.12,South,180,0.0,0.0,21,0.00,,---,0.00,VWS V13.01,2013-12-13 20:58:00,
2013-12-13 16:03:00,37.8,1.4,29.12,South,180,0.0,0.0,21,0.00,,---,0.00,VWS V13.01,2013-12-13 21:03:00,
2013-12-13 16:08:00,37.6,1.2,29.12,West,270,0.0,0.0,21,0.00,,---,0.00,VWS V13.01,2013-12-13 21:08:00,
2013-12-13 16:13:00,37.6,1.2,29.12,WSW,248,0.0,0.0,21,0.00,,---,0.00,VWS V13.01,2013-12-13 21:13:00,
2013-12-13 16:18:00,37.6,1.2,29.12,WSW,248,0.0,0.0,21,0.00,,---,0.00,VWS V13.01,2013-12-13 21:18:00,
2013-12-13 16:23:00,36.9,1.6,29.12,South,180,0.0,0.0,22,0.00,,---,0.00,VWS V13.01,2013-12-13 21:23:00,
2013-12-13 16:28:00,36.9,1.6,29.12,South,180,0.0,0.0,22,0.00,,---,0.00,VWS V13.01,2013-12-13 21:28:00,
2013-12-13 16:33:00,36.9,1.6,29.12,SW,225,0.0,0.0,22,0.00,,---,0.00,VWS V13.01,2013-12-13 21:33:00,
2013-12-13 16:38:00,36.9,1.6,29.12,WNW,292,0.0,0.0,22,0.00,,---,0.00,VWS V13.01,2013-12-13 21:38:00,
2013-12-13 16:43:00,35.6,0.5,29.12,SE,135,0.0,2.2,22,0.00,,---,0.00,VWS V13.01,2013-12-13 21:43:00,
2013-12-13 16:48:00,36.1,1.0,29.12,South,180,0.0,2.2,22,0.00,,---,0.00,VWS V13.01,2013-12-13 21:48:00,
2013-12-13 16:53:00,36.1,1.0,29.12,SW,225,0.0,2.2,22,0.00,,---,0.00,VWS V13.01,2013-12-13 21:53:00,
2013-12-13 16:59:00,36.3,1.1,29.12,SSE,158,0.0,4.5,22,0.00,,---,0.00,VWS V13.01,2013-12-13 21:59:00,
2013-12-13 17:04:00,36.3,1.1,29.14,SSE,158,0.0,0.0,22,0.00,,---,0.00,VWS V13.01,2013-12-13 22:04:00,
2013-12-13 17:09:00,34.5,-0.4,29.14,South,180,0.0,0.0,22,0.00,,---,0.00,VWS V13.01,2013-12-13 22:09:00,
2013-12-13 17:14:00,34.7,-0.2,29.14,South,180,0.0,0.0,22,0.00,,---,0.00,VWS V13.01,2013-12-13 22:14:00,
2013-12-13 17:19:00,35.1,0.1,29.14,SSE,158,0.0,0.0,22,0.00,,---,0.00,VWS V13.01,2013-12-13 22:19:00,
2013-12-13 17:24:00,34.9,-0.1,29.14,West,270,0.0,0.0,22,0.00,,---,0.00,VWS V13.01,2013-12-13 22:24:00,
2013-12-13 17:29:00,34.3,-0.6,29.14,West,270,0.0,0.0,22,0.00,,---,0.00,VWS V13.01,2013-12-13 22:29:00,
2013-12-13 17:34:00,33.6,-0.2,29.17,West,270,0.0,0.0,23,0.00,,---,0.00,VWS V13.01,2013-12-13 22:34:00,
2013-12-13 17:39:00,33.6,-0.2,29.17,West,270,0.0,0.0,23,0.00,,---,0.00,VWS V13.01,2013-12-13 22:39:00,
2013-12-13 17:44:00,33.3,1.2,29.17,West,270,0.0,0.0,25,0.00,,---,0.00,VWS V13.01,2013-12-13 22:44:00,
2013-12-13 17:49:00,34.2,-0.7,29.14,WNW,292,0.0,0.0,22,0.00,,---,0.00,VWS V13.01,2013-12-13 22:49:00,
2013-12-13 17:54:00,34.2,-0.7,29.14,WSW,248,0.0,0.0,22,0.00,,---,0.00,VWS V13.01,2013-12-13 22:54:00,
2013-12-13 17:59:00,34.3,-0.6,29.14,SW,225,0.0,0.0,22,0.00,,---,0.00,VWS V13.01,2013-12-13 22:59:00,
2013-12-13 18:04:00,34.7,-0.2,29.14,South,180,0.0,0.0,22,0.00,,---,0.00,VWS V13.01,2013-12-13 23:04:00,
2013-12-13 18:09:00,35.2,0.2,29.14,South,180,0.0,3.6,22,0.00,,---,0.00,VWS V13.01,2013-12-13 23:09:00,
2013-12-13 18:14:00,35.1,0.1,29.14,South,180,0.0,3.6,22,0.00,,---,0.00,VWS V13.01,2013-12-13 23:14:00,
2013-12-13 18:20:00,35.2,0.2,29.17,SSE,158,0.0,3.6,22,0.00,,---,0.00,VWS V13.01,2013-12-13 23:20:00,
2013-12-13 18:25:00,34.9,-0.1,29.17,SSE,158,0.0,0.0,22,0.00,,---,0.00,VWS V13.01,2013-12-13 23:25:00,
2013-12-13 18:30:00,32.9,0.9,29.17,SW,225,0.0,0.0,25,0.00,,---,0.00,VWS V13.01,2013-12-13 23:30:00,
2013-12-13 18:35:00,31.8,2.4,29.17,SW,225,0.0,0.0,28,0.00,,---,0.00,VWS V13.01,2013-12-13 23:35:00,
2013-12-13 18:40:00,30.7,3.7,29.17,WSW,248,0.0,0.0,31,0.00,,---,0.00,VWS V13.01,2013-12-13 23:40:00,
2013-12-13 18:45:00,30.9,3.8,29.17,SW,225,0.0,0.0,31,0.00,,---,0.00,VWS V13.01,2013-12-13 23:45:00,
2013-12-13 18:50:00,30.6,3.5,29.17,WNW,292,0.0,0.0,31,0.00,,---,0.00,VWS V13.01,2013-12-13 23:50:00,
2013-12-13 18:56:00,30.2,4.6,29.17,WNW,292,0.0,0.0,33,0.00,,---,0.00,VWS V13.01,2013-12-13 23:56:00,
2013-12-13 19:01:00,31.1,4.0,29.17,SW,225,0.0,0.0,31,0.00,,---,0.00,VWS V13.01,2013-12-14 00:01:00,
2013-12-13 19:06:00,31.1,4.0,29.14,WSW,248,0.0,0.0,31,0.00,,---,0.00,VWS V13.01,2013-12-14 00:06:00,
2013-12-13 19:11:00,32.5,3.1,29.14,WSW,248,0.0,0.0,28,0.00,,---,0.00,VWS V13.01,2013-12-14 00:11:00,
2013-12-13 19:16:00,31.1,4.0,29.14,WSW,248,0.0,0.0,31,0.00,,---,0.00,VWS V13.01,2013-12-14 00:16:00,
2013-12-13 19:22:00,30.2,5.2,29.14,WSW,248,0.0,0.0,34,0.00,,---,0.00,VWS V13.01,2013-12-14 00:22:00,
2013-12-13 19:27:00,30.0,5.1,29.14,WSW,248,0.0,0.0,34,0.00,,---,0.00,VWS V13.01,2013-12-14 00:27:00,
2013-12-13 19:32:00,30.2,3.9,29.14,West,270,0.0,0.0,32,0.00,,---,0.00,VWS V13.01,2013-12-14 00:32:00,
2013-12-13 19:37:00,30.6,4.2,29.14,West,270,0.0,0.0,32,0.00,,---,0.00,VWS V13.01,2013-12-14 00:37:00,
2013-12-13 19:42:00,31.1,3.3,29.14,West,270,0.0,0.0,30,0.00,,---,0.00,VWS V13.01,2013-12-14 00:42:00,
2013-12-13 19:48:00,31.3,3.5,29.17,West,270,0.0,0.0,30,0.00,,---,0.00,VWS V13.01,2013-12-14 00:48:00,
2013-12-13 19:53:00,30.9,4.5,29.17,West,270,0.0,0.0,32,0.00,,---,0.00,VWS V13.01,2013-12-14 00:53:00,
2013-12-13 19:58:00,30.6,5.5,29.17,West,270,0.0,0.0,34,0.00,,---,0.00,VWS V13.01,2013-12-14 00:58:00,
2013-12-13 20:03:00,30.9,3.8,29.17,SW,225,0.0,0.0,31,0.00,,---,0.00,VWS V13.01,2013-12-14 01:03:00,
2013-12-13 20:08:00,31.3,4.9,29.17,SW,225,0.0,0.0,32,0.00,,---,0.00,VWS V13.01,2013-12-14 01:08:00,
2013-12-13 20:13:00,31.6,4.5,29.17,SW,225,0.0,0.0,31,0.00,,---,0.00,VWS V13.01,2013-12-14 01:13:00,
2013-12-13 20:16:00,31.6,4.5,29.17,SW,225,0.0,0.0,31,0.00,,---,0.00,VWS V13.01,2013-12-14 01:16:00,
2013-12-13 20:21:00,32.2,5.7,29.17,SW,225,0.0,0.0,32,0.00,,---,0.00,VWS V13.01,2013-12-14 01:21:00,
2013-12-13 20:26:00,32.5,5.3,29.17,SW,225,0.0,0.0,31,0.00,,---,0.00,VWS V13.01,2013-12-14 01:26:00,
2013-12-13 20:32:00,32.4,5.8,29.17,SW,225,0.0,0.0,32,0.00,,---,0.00,VWS V13.01,2013-12-14 01:32:00,
2013-12-13 20:37:00,31.8,6.7,29.17,SW,225,0.0,0.0,34,0.00,,---,0.00,VWS V13.01,2013-12-14 01:37:00,
2013-12-13 20:42:00,31.8,6.0,29.17,SW,225,0.0,0.0,33,0.00,,---,0.00,VWS V13.01,2013-12-14 01:42:00,
2013-12-13 20:47:00,32.7,5.4,29.17,South,180,0.0,0.0,31,0.00,,---,0.00,VWS V13.01,2013-12-14 01:47:00,
2013-12-13 20:52:00,32.9,5.6,29.17,South,180,0.0,0.0,31,0.00,,---,0.00,VWS V13.01,2013-12-14 01:52:00,
2013-12-13 20:57:00,32.9,5.6,29.17,SE,135,0.0,0.0,31,0.00,,---,0.00,VWS V13.01,2013-12-14 01:57:00,
2013-12-13 21:02:00,32.9,5.6,29.17,West,270,0.0,0.0,31,0.00,,---,0.00,VWS V13.01,2013-12-14 02:02:00,
2013-12-13 21:08:00,33.1,5.8,29.17,West,270,0.0,0.0,31,0.00,,---,0.00,VWS V13.01,2013-12-14 02:08:00,
2013-12-13 21:13:00,33.3,5.2,29.17,West,270,0.0,0.0,30,0.00,,---,0.00,VWS V13.01,2013-12-14 02:13:00,
2013-12-13 21:18:00,33.1,6.4,29.17,SW,225,0.0,0.0,32,0.00,,---,0.00,VWS V13.01,2013-12-14 02:18:00,
2013-12-13 21:23:00,32.5,6.6,29.17,SW,225,0.0,0.0,33,0.00,,---,0.00,VWS V13.01,2013-12-14 02:23:00,
2013-12-13 21:28:00,32.0,6.2,29.17,SW,225,0.0,0.0,33,0.00,,---,0.00,VWS V13.01,2013-12-14 02:28:00,
2013-12-13 21:33:00,31.8,4.6,29.17,SW,225,0.0,0.0,31,0.00,,---,0.00,VWS V13.01,2013-12-14 02:33:00,
2013-12-13 21:38:00,31.5,7.0,29.17,SW,225,0.0,0.0,35,0.00,,---,0.00,VWS V13.01,2013-12-14 02:38:00,
2013-12-13 21:44:00,31.1,6.7,29.17,SW,225,0.0,0.0,35,0.00,,---,0.00,VWS V13.01,2013-12-14 02:44:00,
2013-12-13 21:49:00,30.9,8.9,29.17,SW,225,0.0,0.0,39,0.00,,---,0.00,VWS V13.01,2013-12-14 02:49:00,
2013-12-13 21:54:00,30.9,7.1,29.17,SW,225,0.0,0.0,36,0.00,,---,0.00,VWS V13.01,2013-12-14 02:54:00,
2013-12-13 21:59:00,30.9,9.4,29.17,SW,225,0.0,0.0,40,0.00,,---,0.00,VWS V13.01,2013-12-14 02:59:00,
2013-12-13 22:04:00,30.9,10.0,29.20,SW,225,0.0,0.0,41,0.00,,---,0.00,VWS V13.01,2013-12-14 03:04:00,
2013-12-13 22:09:00,30.9,9.4,29.20,SW,225,0.0,0.0,40,0.00,,---,0.00,VWS V13.01,2013-12-14 03:09:00,
2013-12-13 22:15:00,30.9,10.0,29.20,SW,225,0.0,0.0,41,0.00,,---,0.00,VWS V13.01,2013-12-14 03:15:00,
2013-12-13 22:20:00,30.7,10.4,29.20,SW,225,0.0,0.0,42,0.00,,---,0.00,VWS V13.01,2013-12-14 03:20:00,
2013-12-13 22:25:00,30.7,10.4,29.20,SW,225,0.0,0.0,42,0.00,,---,0.00,VWS V13.01,2013-12-14 03:25:00,
2013-12-13 22:30:00,30.4,11.1,29.20,SW,225,0.0,0.0,44,0.00,,---,0.00,VWS V13.01,2013-12-14 03:30:00,
2013-12-13 22:35:00,30.4,11.1,29.20,SW,225,0.0,0.0,44,0.00,,---,0.00,VWS V13.01,2013-12-14 03:35:00,
2013-12-13 22:41:00,30.2,10.9,29.20,SW,225,0.0,0.0,44,0.00,,---,0.00,VWS V13.01,2013-12-14 03:41:00,
2013-12-13 22:46:00,30.2,11.4,29.20,SW,225,0.0,0.0,45,0.00,,---,0.00,VWS V13.01,2013-12-14 03:46:00,
2013-12-13 22:51:00,29.8,11.6,29.17,SW,225,0.0,0.0,46,0.00,,---,0.00,VWS V13.01,2013-12-14 03:51:00,
2013-12-13 22:56:00,29.8,11.6,29.17,SW,225,0.0,0.0,46,0.00,,---,0.00,VWS V13.01,2013-12-14 03:56:00,
2013-12-13 23:02:00,29.8,11.6,29.17,SW,225,0.0,0.0,46,0.00,,---,0.00,VWS V13.01,2013-12-14 04:02:00,
2013-12-13 23:07:00,29.7,11.4,29.20,SW,225,0.0,0.0,46,0.00,,---,0.00,VWS V13.01,2013-12-14 04:07:00,
2013-12-13 23:12:00,29.7,11.9,29.20,SW,225,0.0,0.0,47,0.00,,---,0.00,VWS V13.01,2013-12-14 04:12:00,
2013-12-13 23:17:00,29.7,12.9,29.20,SW,225,0.0,0.0,49,0.00,,---,0.00,VWS V13.01,2013-12-14 04:17:00,
2013-12-13 23:22:00,29.7,12.4,29.20,SW,225,0.0,0.0,48,0.00,,---,0.00,VWS V13.01,2013-12-14 04:22:00,
2013-12-13 23:27:00,29.7,11.9,29.20,SW,225,0.0,0.0,47,0.00,,---,0.00,VWS V13.01,2013-12-14 04:27:00,
2013-12-13 23:32:00,29.7,11.9,29.17,SW,225,0.0,0.0,47,0.00,,---,0.00,VWS V13.01,2013-12-14 04:32:00,
2013-12-13 23:38:00,29.5,11.8,29.17,SW,225,0.0,0.0,47,0.00,,---,0.00,VWS V13.01,2013-12-14 04:38:00,
2013-12-13 23:43:00,29.5,10.8,29.17,SW,225,0.0,0.0,45,0.00,,---,0.00,VWS V13.01,2013-12-14 04:43:00,
2013-12-13 23:48:00,29.7,12.4,29.17,SW,225,0.0,0.0,48,0.00,,---,0.00,VWS V13.01,2013-12-14 04:48:00,
2013-12-13 23:53:00,29.8,13.5,29.17,SW,225,0.0,0.0,50,0.00,,---,0.00,VWS V13.01,2013-12-14 04:53:00,
2013-12-13 23:58:00,29.7,13.3,29.17,SW,225,0.0,0.0,50,0.00,,---,0.00,VWS V13.01,2013-12-14 04:58:00,